Location: 相模原市立博物館
(35.5593°N, 139.3931°E)
Time: 11:59:02
(UTC+09:00)

Envisat - Pass Details

Date: 30 October 2021
Orbit: 764 x 766 km, 98.2° (Epoch: 30 November)

Event Time Altitude Azimuth Distance (km) Brightness Sun altitude
Rises 17:28:18 0° 218° (SW) 3,219 7.1 -8.5°
Reaches altitude 10° 17:32:38 10° 254° (WSW) 2,300 7.1 -9.3°
Maximum altitude 17:33:56 11° 269° (W) 2,236 6.9 -9.6°
Drops below altitude 10° 17:35:16 10° 285° (WNW) 2,303 6.6 -9.9°
Sets 17:39:38 0° 321° (NW) 3,236 6.7 -10.7°
